Time,TemperatureF,DewpointF,PressureIn,WindDirection,WindDirectionDegrees,WindSpeedMPH,WindSpeedGustMPH,Humidity,HourlyPrecipIn,Conditions,Clouds,dailyrainin,SoftwareType,DateUTC
2013-04-13 00:07:00,35.2,34.0,29.76,WSW,251,7.0,-999.0,96,-99.99,,,0.00,weatherlink.com 1.10,2013-04-13 04:07:00,
2013-04-13 00:22:00,35.2,34.0,29.77,WSW,239,5.0,-999.0,96,-99.99,,,0.01,weatherlink.com 1.10,2013-04-13 04:22:00,
2013-04-13 00:37:00,35.1,34.0,29.77,WSW,255,2.0,-999.0,96,-99.99,,,0.01,weatherlink.com 1.10,2013-04-13 04:37:00,
2013-04-13 00:52:00,35.0,34.0,29.77,WSW,255,7.0,-999.0,96,-99.99,,,0.01,weatherlink.com 1.10,2013-04-13 04:52:00,
2013-04-13 01:07:00,35.0,34.0,29.77,West,259,5.0,-999.0,96,-99.99,,,0.02,weatherlink.com 1.10,2013-04-13 05:07:00,
2013-04-13 01:22:00,34.4,33.0,29.77,West,261,4.0,-999.0,96,-99.99,,,0.03,weatherlink.com 1.10,2013-04-13 05:22:00,
2013-04-13 01:37:00,34.2,33.0,29.77,SW,229,5.0,-999.0,96,-99.99,,,0.04,weatherlink.com 1.10,2013-04-13 05:37:00,
2013-04-13 01:52:00,33.8,33.0,29.77,WSW,248,5.0,-999.0,96,-99.99,,,0.04,weatherlink.com 1.10,2013-04-13 05:52:00,
2013-04-13 02:07:00,33.7,33.0,29.78,West,266,6.0,-999.0,96,-99.99,,,0.05,weatherlink.com 1.10,2013-04-13 06:07:00,
2013-04-13 02:22:00,34.4,34.0,29.78,WSW,247,7.0,-999.0,97,-99.99,,,0.05,weatherlink.com 1.10,2013-04-13 06:22:00,
2013-04-13 02:37:00,34.7,34.0,29.78,WSW,242,8.0,-999.0,96,-99.99,,,0.05,weatherlink.com 1.10,2013-04-13 06:37:00,
2013-04-13 02:52:00,34.4,33.0,29.78,WSW,252,13.0,-999.0,96,-99.99,,,0.05,weatherlink.com 1.10,2013-04-13 06:52:00,
2013-04-13 03:22:00,34.1,33.0,29.78,WSW,258,9.0,-999.0,96,-99.99,,,0.06,weatherlink.com 1.10,2013-04-13 07:22:00,
2013-04-13 03:37:00,33.2,32.0,29.78,WSW,252,5.0,-999.0,96,-99.99,,,0.06,weatherlink.com 1.10,2013-04-13 07:37:00,
2013-04-13 03:52:00,33.2,32.0,29.79,WSW,238,7.0,-999.0,96,-99.99,,,0.06,weatherlink.com 1.10,2013-04-13 07:52:00,
2013-04-13 04:07:00,33.3,32.0,29.78,WSW,242,10.0,-999.0,96,-99.99,,,0.06,weatherlink.com 1.10,2013-04-13 08:07:00,
2013-04-13 04:22:00,33.5,32.0,29.79,WSW,252,7.0,-999.0,95,-99.99,,,0.07,weatherlink.com 1.10,2013-04-13 08:22:00,
2013-04-13 04:37:00,33.6,32.0,29.79,WSW,249,5.0,-999.0,95,-99.99,,,0.07,weatherlink.com 1.10,2013-04-13 08:37:00,
2013-04-13 04:52:00,33.7,33.0,29.79,SW,227,4.0,-999.0,95,-99.99,,,0.07,weatherlink.com 1.10,2013-04-13 08:52:00,
2013-04-13 05:07:00,33.7,33.0,29.79,SW,226,6.0,-999.0,95,-99.99,,,0.07,weatherlink.com 1.10,2013-04-13 09:07:00,
2013-04-13 05:22:00,33.8,32.0,29.78,WSW,239,11.0,-999.0,94,-99.99,,,0.07,weatherlink.com 1.10,2013-04-13 09:22:00,
2013-04-13 05:37:00,34.2,32.0,29.78,SW,236,6.0,-999.0,92,-99.99,,,0.07,weatherlink.com 1.10,2013-04-13 09:37:00,
2013-04-13 05:52:00,34.2,32.0,29.77,WSW,247,7.0,-999.0,91,-99.99,,,0.08,weatherlink.com 1.10,2013-04-13 09:52:00,
2013-04-13 06:07:00,34.2,32.0,29.77,WSW,250,8.0,-999.0,90,-99.99,,,0.08,weatherlink.com 1.10,2013-04-13 10:07:00,
2013-04-13 06:22:00,34.2,32.0,29.77,WSW,252,7.0,-999.0,90,-99.99,,,0.08,weatherlink.com 1.10,2013-04-13 10:22:00,
2013-04-13 06:37:00,34.2,31.0,29.77,SW,234,6.0,-999.0,89,-99.99,,,0.08,weatherlink.com 1.10,2013-04-13 10:37:00,
2013-04-13 06:52:00,34.3,31.0,29.77,SW,230,9.0,-999.0,89,-99.99,,,0.08,weatherlink.com 1.10,2013-04-13 10:52:00,
2013-04-13 07:22:00,34.3,31.0,29.77,WSW,252,13.0,-999.0,88,-99.99,,,0.08,weatherlink.com 1.10,2013-04-13 11:22:00,
2013-04-13 07:37:00,34.3,31.0,29.78,WSW,245,10.0,-999.0,89,-99.99,,,0.08,weatherlink.com 1.10,2013-04-13 11:37:00,
2013-04-13 08:22:00,34.3,31.0,29.78,West,263,13.0,-999.0,88,-99.99,,,0.08,weatherlink.com 1.10,2013-04-13 12:22:00,
2013-04-13 08:37:00,34.3,31.0,29.79,SW,223,11.0,-999.0,89,-99.99,,,0.08,weatherlink.com 1.10,2013-04-13 12:37:00,
2013-04-13 08:52:00,34.4,32.0,29.79,WSW,257,16.0,-999.0,89,-99.99,,,0.08,weatherlink.com 1.10,2013-04-13 12:52:00,
2013-04-13 09:07:00,34.4,32.0,29.79,WSW,249,10.0,-999.0,89,-99.99,,,0.08,weatherlink.com 1.10,2013-04-13 13:07:00,
2013-04-13 09:22:00,34.6,32.0,29.79,SW,233,10.0,-999.0,89,-99.99,,,0.08,weatherlink.com 1.10,2013-04-13 13:22:00,
2013-04-13 09:37:00,34.4,32.0,29.79,SW,232,9.0,-999.0,89,-99.99,,,0.08,weatherlink.com 1.10,2013-04-13 13:37:00,
2013-04-13 09:52:00,34.2,32.0,29.79,SW,223,8.0,-999.0,91,-99.99,,,0.08,weatherlink.com 1.10,2013-04-13 13:52:00,
2013-04-13 10:07:00,34.2,32.0,29.79,WSW,248,8.0,-999.0,91,-99.99,,,0.08,weatherlink.com 1.10,2013-04-13 14:07:00,
2013-04-13 10:22:00,34.2,32.0,29.79,SW,228,12.0,-999.0,92,-99.99,,,0.08,weatherlink.com 1.10,2013-04-13 14:22:00,
2013-04-13 10:37:00,34.0,32.0,29.80,WSW,244,14.0,-999.0,92,-99.99,,,0.08,weatherlink.com 1.10,2013-04-13 14:37:00,
2013-04-13 10:52:00,34.2,32.0,29.80,WSW,245,12.0,-999.0,92,-99.99,,,0.08,weatherlink.com 1.10,2013-04-13 14:52:00,
2013-04-13 11:22:00,34.7,32.0,29.80,WSW,248,15.0,-999.0,89,-99.99,,,0.08,weatherlink.com 1.10,2013-04-13 15:22:00,
2013-04-13 11:52:00,34.7,32.0,29.81,West,269,12.0,-999.0,90,-99.99,,,0.08,weatherlink.com 1.10,2013-04-13 15:52:00,
2013-04-13 12:07:00,34.8,32.0,29.82,West,268,14.0,-999.0,90,-99.99,,,0.08,weatherlink.com 1.10,2013-04-13 16:07:00,
2013-04-13 12:22:00,34.9,32.0,29.82,WSW,254,14.0,-999.0,89,-99.99,,,0.08,weatherlink.com 1.10,2013-04-13 16:22:00,
2013-04-13 13:07:00,33.6,31.0,29.83,West,265,17.0,-999.0,90,-99.99,,,0.08,weatherlink.com 1.10,2013-04-13 17:07:00,
2013-04-13 13:52:00,34.8,29.0,29.85,West,274,17.0,-999.0,80,-99.99,,,0.09,weatherlink.com 1.10,2013-04-13 17:52:00,
2013-04-13 14:07:00,35.4,30.0,29.85,West,275,19.0,-999.0,81,-99.99,,,0.09,weatherlink.com 1.10,2013-04-13 18:07:00,
2013-04-13 14:22:00,36.1,31.0,29.86,WSW,257,14.0,-999.0,82,-99.99,,,0.09,weatherlink.com 1.10,2013-04-13 18:22:00,
2013-04-13 14:37:00,37.2,29.0,29.86,WSW,258,14.0,-999.0,73,-99.99,,,0.09,weatherlink.com 1.10,2013-04-13 18:37:00,
2013-04-13 14:52:00,36.9,29.0,29.86,West,264,25.0,-999.0,73,-99.99,,,0.09,weatherlink.com 1.10,2013-04-13 18:52:00,
2013-04-13 15:07:00,37.3,28.0,29.87,West,279,24.0,-999.0,69,-99.99,,,0.09,weatherlink.com 1.10,2013-04-13 19:07:00,
2013-04-13 15:22:00,37.7,28.0,29.87,West,265,16.0,-999.0,68,-99.99,,,0.09,weatherlink.com 1.10,2013-04-13 19:22:00,
2013-04-13 15:37:00,37.5,28.0,29.87,WNW,290,12.0,-999.0,69,-99.99,,,0.09,weatherlink.com 1.10,2013-04-13 19:37:00,
2013-04-13 15:52:00,39.2,30.0,29.87,WNW,290,23.0,-999.0,69,-99.99,,,0.09,weatherlink.com 1.10,2013-04-13 19:52:00,
2013-04-13 16:07:00,38.5,29.0,29.88,West,273,11.0,-999.0,68,-99.99,,,0.09,weatherlink.com 1.10,2013-04-13 20:07:00,
2013-04-13 16:22:00,38.0,28.0,29.88,West,271,13.0,-999.0,67,-99.99,,,0.09,weatherlink.com 1.10,2013-04-13 20:22:00,
2013-04-13 16:37:00,38.1,29.0,29.89,West,264,16.0,-999.0,69,-99.99,,,0.09,weatherlink.com 1.10,2013-04-13 20:37:00,
2013-04-13 16:52:00,37.0,28.0,29.89,WSW,257,12.0,-999.0,71,-99.99,,,0.09,weatherlink.com 1.10,2013-04-13 20:52:00,
2013-04-13 17:07:00,37.7,29.0,29.89,West,263,22.0,-999.0,71,-99.99,,,0.09,weatherlink.com 1.10,2013-04-13 21:07:00,
2013-04-13 17:22:00,37.4,29.0,29.89,West,263,13.0,-999.0,71,-99.99,,,0.09,weatherlink.com 1.10,2013-04-13 21:22:00,
2013-04-13 17:37:00,37.1,28.0,29.89,West,260,20.0,-999.0,70,-99.99,,,0.09,weatherlink.com 1.10,2013-04-13 21:37:00,
2013-04-13 17:52:00,37.3,28.0,29.90,WSW,250,15.0,-999.0,69,-99.99,,,0.09,weatherlink.com 1.10,2013-04-13 21:52:00,
2013-04-13 18:07:00,37.2,28.0,29.91,West,265,15.0,-999.0,70,-99.99,,,0.09,weatherlink.com 1.10,2013-04-13 22:07:00,
2013-04-13 18:22:00,36.9,29.0,29.91,West,264,16.0,-999.0,72,-99.99,,,0.09,weatherlink.com 1.10,2013-04-13 22:22:00,
2013-04-13 18:37:00,36.9,29.0,29.91,WSW,258,15.0,-999.0,73,-99.99,,,0.09,weatherlink.com 1.10,2013-04-13 22:37:00,
2013-04-13 18:52:00,36.7,28.0,29.92,WSW,250,16.0,-999.0,71,-99.99,,,0.09,weatherlink.com 1.10,2013-04-13 22:52:00,
2013-04-13 19:07:00,36.6,28.0,29.92,West,269,9.0,-999.0,72,-99.99,,,0.09,weatherlink.com 1.10,2013-04-13 23:07:00,
2013-04-13 19:22:00,36.5,29.0,29.92,WSW,257,10.0,-999.0,73,-99.99,,,0.09,weatherlink.com 1.10,2013-04-13 23:22:00,
2013-04-13 19:37:00,36.3,28.0,29.92,SW,234,12.0,-999.0,73,-99.99,,,0.09,weatherlink.com 1.10,2013-04-13 23:37:00,
2013-04-13 20:07:00,35.8,29.0,29.93,WSW,248,6.0,-999.0,76,-99.99,,,0.09,weatherlink.com 1.10,2013-04-14 00:07:00,
2013-04-13 20:22:00,35.7,29.0,29.93,WSW,258,10.0,-999.0,77,-99.99,,,0.09,weatherlink.com 1.10,2013-04-14 00:22:00,
2013-04-13 20:37:00,35.7,29.0,29.93,WSW,252,6.0,-999.0,78,-99.99,,,0.09,weatherlink.com 1.10,2013-04-14 00:37:00,
2013-04-13 20:52:00,35.6,30.0,29.94,WSW,254,7.0,-999.0,79,-99.99,,,0.09,weatherlink.com 1.10,2013-04-14 00:52:00,
2013-04-13 21:07:00,35.6,30.0,29.94,WSW,256,7.0,-999.0,79,-99.99,,,0.09,weatherlink.com 1.10,2013-04-14 01:07:00,
2013-04-13 21:22:00,35.6,30.0,29.95,WSW,254,6.0,-999.0,79,-99.99,,,0.09,weatherlink.com 1.10,2013-04-14 01:22:00,
2013-04-13 21:37:00,35.6,30.0,29.95,WSW,250,4.0,-999.0,79,-99.99,,,0.09,weatherlink.com 1.10,2013-04-14 01:37:00,
2013-04-13 21:52:00,35.6,30.0,29.96,West,263,4.0,-999.0,80,-99.99,,,0.09,weatherlink.com 1.10,2013-04-14 01:52:00,
2013-04-13 22:07:00,35.6,30.0,29.96,WSW,257,4.0,-999.0,80,-99.99,,,0.09,weatherlink.com 1.10,2013-04-14 02:07:00,
2013-04-13 22:22:00,35.4,30.0,29.97,WSW,256,3.0,-999.0,82,-99.99,,,0.09,weatherlink.com 1.10,2013-04-14 02:22:00,
2013-04-13 22:37:00,35.3,31.0,29.97,WSW,252,2.0,-999.0,83,-99.99,,,0.09,weatherlink.com 1.10,2013-04-14 02:37:00,
2013-04-13 22:52:00,35.3,31.0,29.97,WSW,254,3.0,-999.0,83,-99.99,,,0.09,weatherlink.com 1.10,2013-04-14 02:52:00,
2013-04-13 23:07:00,35.3,31.0,29.97,WSW,254,3.0,-999.0,83,-99.99,,,0.09,weatherlink.com 1.10,2013-04-14 03:07:00,
2013-04-13 23:22:00,35.2,31.0,29.98,WSW,254,3.0,-999.0,83,-99.99,,,0.09,weatherlink.com 1.10,2013-04-14 03:22:00,
2013-04-13 23:37:00,35.1,31.0,29.98,WSW,254,4.0,-999.0,84,-99.99,,,0.09,weatherlink.com 1.10,2013-04-14 03:37:00,
2013-04-13 23:52:00,35.0,31.0,29.98,WSW,254,2.0,-999.0,84,-99.99,,,0.09,weatherlink.com 1.10,2013-04-14 03:52:00,